Fremont, MI

7:55 AM EDT on October 20, 2019 (GMT -0400)
Fremont

Weather History for KFFX - August, 2019

Change the Weather History Date:

Saturday, August 24, 2019

  Actual Average (KMKG) Record (KMKG)
Temperature  
Mean Temperature 62 °F -  
Max Temperature 75 °F 77 °F 96 °F (1947)
Min Temperature 50 °F 57 °F 40 °F (1942)
Degree Days  
Heating Degree Days 2    
Growing Degree Days 12 (Base 50)    
Moisture  
Dew Point 49 °F    
Average Humidity 65    
Maximum Humidity 100    
Minimum Humidity 34    
Precipitation  
Precipitation 0.00 in - - ()
Sea Level Pressure  
Sea Level Pressure 30.29 in    
Wind  
Wind Speed 4 mph ()    
Max Wind Speed 9 mph    
Max Gust Speed -    
Visibility 10.0 miles    
Events      
Averages and records for this station are not official NWS values.
T = Trace of Precipitation, MM = Missing Value Source: Averaged Metar Reports

Daily Weather History Graph

Daily Weather History Graph

Search for Another Location

Airport or City:

Astronomy

Aug. 24, 2019 Rise Set
Actual Time 6:58 AM EDT 8:33 PM EDT
Civil Twilight 6:28 AM EDT 9:03 PM EDT
Nautical Twilight 5:52 AM EDT 9:39 PM EDT
Astronomical Twilight 5:13 AM EDT 10:18 PM EDT
Moon 12:47 AM EDT (8/24) 3:53 PM EDT (8/24)
Length of Visible Light 14h 34m
Length of Day
13h 34m
Last Quarter, 39% of the Moon is Illuminated
Aug 24
Last Quarter
Aug 30
New
Sep 5
First Quarter
Sep 14
Full
Sep 21
Last Quarter

Hourly Weather History & Observations

Time (EDT) Temp. Dew Point Humidity Pressure Visibility Wind Dir Wind Speed Gust Speed Precip Events Conditions
12:15 AM 54.9 °F 50.9 °F 86% 30.27 in 10.0 mi Calm Calm - N/A   Clear
12:16 AM 54.7 °F 51.1 °F 88% 30.27 in 10.0 mi Calm Calm - N/A   Clear
12:35 AM 55.4 °F 52.0 °F 88% 30.27 in 10.0 mi NE 5.8 mph - N/A   Clear
12:36 AM 55.6 °F 52.0 °F 88% 30.27 in 10.0 mi NE 4.6 mph - N/A   Clear
12:55 AM 56.1 °F 50.4 °F 81% 30.28 in 10.0 mi NE 3.5 mph - N/A   Clear
1:00 AM 54.9 °F 51.4 °F 88% 30.28 in 10.0 mi NE 3.5 mph - N/A   Clear
1:18 AM 53.6 °F 50.7 °F 90% 30.28 in 10.0 mi Calm Calm - N/A   Clear
1:36 AM 52.2 °F 50.9 °F 95% 30.28 in 10.0 mi Calm Calm - N/A   Clear
1:55 AM 54.7 °F 52.7 °F 93% 30.28 in 10.0 mi ENE 8.1 mph - N/A   Clear
1:56 AM 55.0 °F 52.7 °F 92% 30.28 in 10.0 mi ENE 6.9 mph - N/A   Clear
2:15 AM 55.6 °F 52.7 °F 90% 30.28 in 10.0 mi ENE 4.6 mph - N/A   Clear
2:16 AM 55.6 °F 52.7 °F 90% 30.28 in 10.0 mi ENE 4.6 mph - N/A   Clear
2:39 AM 54.9 °F 52.7 °F 92% 30.28 in 10.0 mi ENE 4.6 mph - N/A   Clear
2:57 AM 54.5 °F 52.5 °F 93% 30.28 in 10.0 mi East 5.8 mph - N/A   Clear
3:15 AM 54.5 °F 52.3 °F 92% 30.28 in 10.0 mi East 5.8 mph - N/A   Clear
3:35 AM 54.5 °F 50.7 °F 87% 30.29 in 10.0 mi Calm Calm - N/A   Clear
3:55 AM 53.4 °F 51.1 °F 92% 30.30 in 10.0 mi Calm Calm - N/A   Clear
4:00 AM 53.6 °F 51.1 °F 91% 30.30 in 10.0 mi East 3.5 mph - N/A   Clear
4:18 AM 52.7 °F 50.7 °F 93% 30.30 in 10.0 mi East 3.5 mph - N/A   Clear
4:36 AM 52.7 °F 51.1 °F 94% 30.30 in 10.0 mi Calm Calm - N/A   Clear
4:55 AM 53.1 °F 51.1 °F 93% 30.31 in 10.0 mi ESE 3.5 mph - N/A   Clear
5:15 AM 52.9 °F 50.5 °F 92% 30.31 in 10.0 mi ESE 3.5 mph - N/A   Clear
5:39 AM 52.2 °F 50.0 °F 92% 30.31 in 10.0 mi Calm Calm - N/A   Clear
5:57 AM 52.2 °F 50.9 °F 95% 30.31 in 10.0 mi Calm Calm - N/A   Clear
6:15 AM 52.0 °F 50.7 °F 95% 30.32 in 10.0 mi ESE 3.5 mph - N/A   Clear
6:16 AM 52.0 °F 50.7 °F 95% 30.32 in 10.0 mi ESE 3.5 mph - N/A   Clear
6:35 AM 51.8 °F 50.4 °F 95% 30.33 in 10.0 mi ESE 3.5 mph - N/A   Clear
6:55 AM 51.1 °F 50.4 °F 97% 30.33 in 10.0 mi Calm Calm - N/A   Clear
7:18 AM 50.5 °F 50.5 °F 100% 30.33 in 10.0 mi Calm Calm - N/A   Clear
7:36 AM 51.6 °F 51.3 °F 99% 30.34 in 10.0 mi Calm Calm - N/A   Clear
7:55 AM 53.1 °F 52.5 °F 98% 30.34 in 10.0 mi East 3.5 mph - N/A   Clear
7:56 AM 53.1 °F 52.5 °F 98% 30.34 in 10.0 mi East 3.5 mph - N/A   Clear
8:15 AM 54.7 °F 54.0 °F 97% 30.35 in 10.0 mi East 3.5 mph - N/A   Clear
8:16 AM 54.9 °F 54.1 °F 97% 30.35 in 10.0 mi East 3.5 mph - N/A   Clear
8:38 AM 57.0 °F 54.1 °F 90% 30.36 in 10.0 mi East 5.8 mph - N/A   Clear
8:57 AM 58.5 °F 51.4 °F 77% 30.35 in 10.0 mi East 5.8 mph - N/A   Clear
9:15 AM 60.1 °F 50.9 °F 72% 30.35 in 10.0 mi East 4.6 mph - N/A   Clear
9:35 AM 61.7 °F 49.6 °F 65% 30.34 in 10.0 mi East 6.9 mph - N/A   Clear
9:55 AM 63.7 °F 50.4 °F 62% 30.34 in 10.0 mi East 5.8 mph - N/A   Clear
9:59 AM 63.9 °F 50.2 °F 61% 30.33 in 10.0 mi East 5.8 mph - N/A   Clear
10:17 AM 64.9 °F 49.5 °F 57% 30.34 in 10.0 mi East 4.6 mph - N/A   Clear
10:35 AM 66.0 °F 48.6 °F 53% 30.34 in 10.0 mi East 6.9 mph - N/A   Clear
10:55 AM 67.1 °F 48.2 °F 51% 30.34 in 10.0 mi East 8.1 mph - N/A   Clear
11:15 AM 67.5 °F 47.5 °F 49% 30.33 in 10.0 mi East 5.8 mph - N/A   Clear
11:20 AM 68.2 °F 47.3 °F 47% 30.33 in 10.0 mi East 8.1 mph - N/A   Clear
11:38 AM 69.6 °F 46.6 °F 44% 30.33 in 10.0 mi East 8.1 mph - N/A   Clear
11:56 AM 69.8 °F 45.3 °F 41% 30.33 in 10.0 mi East 9.2 mph - N/A   Clear
12:15 PM 70.2 °F 45.7 °F 41% 30.33 in 10.0 mi ESE 8.1 mph - N/A   Clear
12:35 PM 71.1 °F 44.8 °F 39% 30.32 in 10.0 mi East 8.1 mph - N/A   Scattered Clouds
12:59 PM 71.2 °F 44.2 °F 38% 30.31 in 10.0 mi ENE 6.9 mph - N/A   Scattered Clouds
1:35 PM 72.5 °F 45.5 °F 38% 30.30 in 10.0 mi ESE 5.8 mph - N/A   Scattered Clouds
1:36 PM 72.5 °F 45.3 °F 38% 30.30 in 10.0 mi SE 5.8 mph - N/A   Scattered Clouds
1:55 PM 72.1 °F 45.1 °F 38% 30.30 in 10.0 mi East 8.1 mph - N/A   Clear
2:15 PM 72.7 °F 44.8 °F 37% 30.29 in 10.0 mi ESE 8.1 mph - N/A   Clear
2:38 PM 73.6 °F 44.4 °F 35% 30.29 in 10.0 mi East 9.2 mph - N/A   Clear
2:56 PM 73.6 °F 44.2 °F 35% 30.28 in 10.0 mi East 8.1 mph - N/A   Clear
3:15 PM 74.5 °F 45.3 °F 35% 30.28 in 10.0 mi ENE 6.9 mph - N/A   Clear
3:35 PM 74.3 °F 45.1 °F 35% 30.28 in 10.0 mi ENE 6.9 mph - N/A   Clear
3:59 PM 74.3 °F 45.0 °F 35% 30.27 in 10.0 mi East 8.1 mph - N/A   Clear
4:17 PM 73.8 °F 44.2 °F 35% 30.26 in 10.0 mi East 5.8 mph - N/A   Clear
4:35 PM 74.5 °F 44.8 °F 35% 30.25 in 10.0 mi NE 6.9 mph - N/A   Clear
4:36 PM 74.7 °F 44.6 °F 34% 30.25 in 10.0 mi NE 4.6 mph - N/A   Clear
4:55 PM 74.3 °F 45.0 °F 35% 30.25 in 10.0 mi NE 9.2 mph - N/A   Clear
5:15 PM 74.5 °F 45.5 °F 36% 30.24 in 10.0 mi ENE 8.1 mph - N/A   Clear
5:20 PM 74.5 °F 45.7 °F 36% 30.24 in 10.0 mi East 6.9 mph - N/A   Clear
5:38 PM 75.2 °F 45.3 °F 34% 30.24 in 10.0 mi East 8.1 mph - N/A   Clear
5:56 PM 74.5 °F 45.1 °F 35% 30.24 in 10.0 mi ENE 8.1 mph - N/A   Clear
6:15 PM 74.5 °F 45.7 °F 36% 30.24 in 10.0 mi East 6.9 mph - N/A   Clear
6:35 PM 74.1 °F 45.3 °F 36% 30.24 in 10.0 mi ESE 6.9 mph - N/A   Scattered Clouds
6:59 PM 73.4 °F 45.7 °F 37% 30.24 in 10.0 mi ESE 6.9 mph - N/A   Clear
7:17 PM 72.5 °F 46.6 °F 40% 30.24 in 10.0 mi ESE 6.9 mph - N/A   Clear
7:35 PM 71.6 °F 46.0 °F 40% 30.24 in 10.0 mi ESE 3.5 mph - N/A   Clear
7:36 PM 71.6 °F 46.2 °F 40% 30.24 in 10.0 mi ESE 4.6 mph - N/A   Clear
7:55 PM 70.3 °F 46.9 °F 43% 30.24 in 10.0 mi ESE 6.9 mph - N/A   Clear
8:15 PM 68.7 °F 47.7 °F 47% 30.24 in 10.0 mi ESE 3.5 mph - N/A   Clear
8:38 PM 67.6 °F 48.2 °F 50% 30.24 in 10.0 mi Calm Calm - N/A   Clear
8:55 PM 66.2 °F 48.2 °F 52% 30.25 in 10.0 mi East 4.6 mph - N/A   Clear
9:15 PM 65.3 °F 48.9 °F 55% 30.25 in 10.0 mi Calm Calm - N/A   Clear
9:16 PM 65.1 °F 48.9 °F 56% 30.25 in 10.0 mi Calm Calm - N/A   Clear
9:35 PM 63.3 °F 49.6 °F 61% 30.26 in 10.0 mi Calm Calm - N/A   Clear
9:59 PM 62.1 °F 49.6 °F 64% 30.26 in 10.0 mi ESE 3.5 mph - N/A   Clear
10:17 PM 62.4 °F 49.5 °F 63% 30.26 in 10.0 mi East 4.6 mph - N/A   Clear
10:35 PM 62.6 °F 50.2 °F 64% 30.26 in 10.0 mi East 5.8 mph - N/A   Clear
10:36 PM 62.6 °F 50.2 °F 64% 30.26 in 10.0 mi East 5.8 mph - N/A   Clear
10:55 PM 62.1 °F 50.4 °F 65% 30.25 in 10.0 mi East 5.8 mph - N/A   Clear
10:56 PM 62.1 °F 50.4 °F 65% 30.25 in 10.0 mi East 5.8 mph - N/A   Clear
11:15 PM 61.7 °F 50.7 °F 67% 30.25 in 10.0 mi East 8.1 mph - N/A   Clear
11:20 PM 61.7 °F 50.9 °F 68% 30.25 in 10.0 mi East 4.6 mph - N/A   Clear
11:38 PM 60.8 °F 50.9 °F 70% 30.26 in 10.0 mi East 4.6 mph - N/A   Clear
11:56 PM 60.4 °F 51.1 °F 71% 30.25 in 10.0 mi East 8.1 mph - N/A   Clear